Powrót do katalogu

FREGAT R/B

AktywnyHEO
NORAD 54224·ROCKET BODY·🇷🇺 Russia

Wystrzelony Nov 2, 2022 z Plesetsk Cosmodrome

Loading…

Następne Przeloty (najbliższe 24 godziny)

TLE

ŚwieżeSource: Space-Track

Epoka: Sep 8, 2026, 23:11 UTC

1 54224U 22145B   26251.96602117 -.00001202  00000-0  00000-0 0  9995
2 54224  63.5520 269.7665 7013241 265.5312  18.5295  2.02042054 28428

Śledź FREGAT R/B w czasie rzeczywistym z AllMySat

Download on the App Store